Weather History for Gadsden, AL

Change the Weather History Date:

Monday, December 31, 2012

  Actual Average Record
Temperature  
Mean Temperature 38 °F -  
Max Temperature 48 °F 49 °F 70 °F (1932)
Min Temperature 28 °F 30 °F 17 °F (2000)
Degree Days  
Heating Degree Days 27    
Moisture  
Dew Point 30 °F    
Average Humidity 70    
Maximum Humidity 93    
Minimum Humidity 43    
Precipitation  
Precipitation 0.00 in - - ()
Sea Level Pressure  
Sea Level Pressure 30.28 in    
Wind  
Wind Speed 1 mph (SSW)    
Max Wind Speed 8 mph    
Max Gust Speed -    
Visibility 10 miles    
Events      
Averages and records for this station are not official NWS values.
T = Trace of Precipitation, MM = Missing Value Source: NWS Daily Summary

Daily Weather History Graph

Daily Weather History Graph

Search for Another Location

Airport:

Trip Planner

Search our weather history database for the weather conditions in past years. The results will help you decide how hot, cold, wet, or windy it might be!

Date:

Astronomy

Dec. 31, 2012 Rise Set
Actual Time 6:49 AM CST 4:45 PM CST
Civil Twilight 6:21 AM CST 5:13 PM CST
Nautical Twilight 5:50 AM CST 5:44 PM CST
Astronomical Twilight 5:20 AM CST 6:15 PM CST
Moon 8:05 PM CST (12/31) 8:39 AM CST (12/31)
Length of Visible Light 10h 51m
Length of Day
9h 56m
Waning Gibbous, 90% of the Moon is Illuminated
Dec 31
Waning Gibbous
Jan 4
Last Quarter
Jan 11
New
Jan 18
First Quarter
Jan 26
Full

Hourly Weather History & Observations

Time (CST) Temp. Windchill Dew Point Humidity Pressure Visibility Wind Dir Wind Speed Gust Speed Precip Events Conditions
12:15 AM 28.4 °F - 26.6 °F 93% 30.38 in 10.0 mi Calm Calm - N/A   Clear
12:35 AM 30.2 °F - 26.6 °F 86% 30.38 in 10.0 mi Calm Calm - N/A   Clear
12:55 AM 30.2 °F 26.7 °F 26.6 °F 86% 30.37 in 10.0 mi SE 3.5 mph - N/A   Clear
1:15 AM 30.2 °F - 26.6 °F 86% 30.37 in 10.0 mi Calm Calm - N/A   Clear
1:55 AM 30.2 °F - 28.4 °F 93% 30.39 in 10.0 mi Calm Calm - N/A   Clear
2:15 AM 30.2 °F - 28.4 °F 93% 30.38 in 10.0 mi Calm Calm - N/A   Clear
2:35 AM 32.0 °F - 28.4 °F 87% 30.38 in 10.0 mi Calm Calm - N/A   Clear
2:55 AM 32.0 °F - 28.4 °F 87% 30.38 in 10.0 mi Calm Calm - N/A   Clear
3:15 AM 32.0 °F - 28.4 °F 87% 30.37 in 10.0 mi Calm Calm - N/A   Clear
3:35 AM 32.0 °F - 28.4 °F 87% 30.37 in 10.0 mi Calm Calm - N/A   Clear
3:55 AM 30.2 °F - 28.4 °F 93% 30.36 in 10.0 mi Calm Calm - N/A   Clear
4:15 AM 30.2 °F - 28.4 °F 93% 30.37 in 10.0 mi Calm Calm - N/A   Clear
4:35 AM 30.2 °F - 28.4 °F 93% 30.37 in 10.0 mi Calm Calm - N/A   Clear
4:55 AM 30.2 °F - 26.6 °F 86% 30.38 in 10.0 mi Calm Calm - N/A   Clear
5:15 AM 30.2 °F - 26.6 °F 86% 30.37 in 10.0 mi Calm Calm - N/A   Clear
5:35 AM 30.2 °F - 28.4 °F 93% 30.37 in 10.0 mi Calm Calm - N/A   Clear
5:55 AM 30.2 °F - 26.6 °F 86% 30.37 in 10.0 mi Calm Calm - N/A   Clear
6:15 AM 30.2 °F - 26.6 °F 86% 30.36 in 10.0 mi Calm Calm - N/A   Clear
6:55 AM 32.0 °F - 28.4 °F 87% 30.36 in 10.0 mi Calm Calm - N/A   Clear
7:15 AM 30.2 °F - 28.4 °F 93% 30.36 in 10.0 mi Calm Calm - N/A   Clear
7:35 AM 30.2 °F - 28.4 °F 93% 30.37 in 10.0 mi Calm Calm - N/A   Clear
7:55 AM 33.8 °F - 28.4 °F 81% 30.37 in 10.0 mi Calm Calm - N/A   Clear
8:15 AM 35.6 °F 32.8 °F 28.4 °F 75% 30.36 in 10.0 mi East 3.5 mph - N/A   Clear
8:35 AM 35.6 °F - 28.4 °F 75% 30.38 in 10.0 mi Calm Calm - N/A   Clear
8:55 AM 35.6 °F - 26.6 °F 70% 30.37 in 10.0 mi Calm Calm - N/A   Clear
9:15 AM 37.4 °F - 28.4 °F 70% 30.37 in 10.0 mi Calm Calm - N/A   Partly Cloudy
9:35 AM 39.2 °F - 28.4 °F 65% 30.37 in 10.0 mi Calm Calm - N/A   Partly Cloudy
9:55 AM 41.0 °F 39.0 °F 28.4 °F 61% 30.35 in 10.0 mi East 3.5 mph - N/A   Clear
10:15 AM 42.8 °F - 28.4 °F 57% 30.36 in 10.0 mi Calm Calm - N/A   Clear
10:35 AM 44.6 °F 43.1 °F 28.4 °F 53% 30.35 in 10.0 mi SW 3.5 mph - N/A   Clear
10:55 AM 46.4 °F 42.4 °F 28.4 °F 50% 30.35 in 10.0 mi West 8.1 mph - N/A   Clear
11:15 AM 46.4 °F - 28.4 °F 50% 30.32 in 10.0 mi Calm Calm - N/A   Mostly Cloudy
11:35 AM 46.4 °F 45.2 °F 30.2 °F 53% 30.32 in 10.0 mi West 3.5 mph - N/A   Overcast
11:55 AM 48.2 °F - 28.4 °F 46% 30.30 in 10.0 mi South 5.8 mph - N/A   Overcast
12:15 PM 48.2 °F - 28.4 °F 46% 30.29 in 10.0 mi South 5.8 mph - N/A   Overcast
12:35 PM 48.2 °F - 28.4 °F 46% 30.28 in 10.0 mi SSW 5.8 mph - N/A   Overcast
12:55 PM 48.2 °F - 28.4 °F 46% 30.27 in 10.0 mi South 6.9 mph - N/A   Overcast
1:15 PM 48.2 °F - 28.4 °F 46% 30.25 in 10.0 mi SSW 3.5 mph - N/A   Overcast
1:35 PM 48.2 °F - 28.4 °F 46% 30.25 in 10.0 mi SSW 4.6 mph - N/A   Overcast
1:55 PM 48.2 °F - 26.6 °F 43% 30.24 in 10.0 mi SSW 4.6 mph - N/A   Overcast
2:15 PM 48.2 °F - 28.4 °F 46% 30.24 in 10.0 mi SSW 4.6 mph - N/A   Overcast
2:55 PM 48.2 °F - 28.4 °F 46% 30.23 in 10.0 mi SSW 3.5 mph - N/A   Overcast
3:15 PM 48.2 °F - 28.4 °F 46% 30.22 in 10.0 mi Calm Calm - N/A   Overcast
3:35 PM 48.2 °F - 30.2 °F 50% 30.23 in 10.0 mi Calm Calm - N/A   Overcast
3:55 PM 48.2 °F - 30.2 °F 50% 30.22 in 10.0 mi Calm Calm - N/A   Overcast
4:35 PM 46.4 °F - 32.0 °F 57% 30.22 in 10.0 mi Calm Calm - N/A   Overcast
4:55 PM 46.4 °F - 30.2 °F 53% 30.21 in 10.0 mi Calm Calm - N/A   Overcast
5:15 PM 46.4 °F - 30.2 °F 53% 30.20 in 10.0 mi Calm Calm - N/A   Overcast
5:35 PM 46.4 °F - 32.0 °F 57% 30.20 in 10.0 mi Calm Calm - N/A   Overcast
5:55 PM 46.4 °F - 33.8 °F 62% 30.20 in 10.0 mi Calm Calm - N/A   Overcast
6:15 PM 46.4 °F - 33.8 °F 62% 30.19 in 10.0 mi Calm Calm - N/A   Overcast
6:35 PM 46.4 °F - 33.8 °F 62% 30.18 in 10.0 mi Calm Calm - N/A   Mostly Cloudy
6:55 PM 44.6 °F - 35.6 °F 71% 30.19 in 10.0 mi Calm Calm - N/A   Mostly Cloudy
7:15 PM 44.6 °F - 33.8 °F 66% 30.18 in 10.0 mi Calm Calm - N/A   Overcast
7:35 PM 44.6 °F - 35.6 °F 71% 30.17 in 10.0 mi Calm Calm - N/A   Overcast
7:55 PM 44.6 °F - 35.6 °F 71% 30.17 in 10.0 mi Calm Calm - N/A   Overcast
8:15 PM 44.6 °F - 35.6 °F 71% 30.17 in 10.0 mi Calm Calm - N/A   Overcast
8:35 PM 44.6 °F - 35.6 °F 71% 30.17 in 10.0 mi Calm Calm - N/A   Overcast
9:15 PM 42.8 °F - 35.6 °F 76% 30.16 in 10.0 mi Calm Calm - N/A   Partly Cloudy
9:35 PM 42.8 °F - 33.8 °F 70% 30.14 in 10.0 mi Calm Calm - N/A   Clear
9:55 PM 42.8 °F - 35.6 °F 76% 30.13 in 10.0 mi Calm Calm - N/A   Clear
10:15 PM 42.8 °F - 35.6 °F 76% 30.13 in 10.0 mi Calm Calm - N/A   Clear
10:35 PM 41.0 °F - 35.6 °F 81% 30.11 in 10.0 mi Calm Calm - N/A   Mostly Cloudy
10:55 PM 42.8 °F - 35.6 °F 76% 30.10 in 10.0 mi Calm Calm - N/A   Overcast
11:15 PM 42.8 °F - 35.6 °F 76% 30.09 in 10.0 mi Calm Calm - N/A   Overcast
11:35 PM 42.8 °F 41.1 °F 37.4 °F 81% 30.09 in 10.0 mi West 3.5 mph - N/A   Overcast
11:55 PM 42.8 °F - 37.4 °F 81% 30.10 in 10.0 mi Calm Calm - N/A   Scattered Clouds